Lexington Weather

Lexington, Massachusetts, USA

44°F
3/22/2023 9:20am 
  • Lexington Conditions: Clear
  • Temperature: 44.2°F / 6.8°CWarmer 7.0°F than last hour.
  • Dew Point: 34.0°FIncreased 1.1°Fsince last hour.
  • Relative Humidity: 67%Decreased 17.0% since last hour.
  • Wind: Calm, 10-min avg: Calm, gust: 1 mph
  • Barometer: 30.39 in Steady
  • Visibility: 10 miles
  • Rain Today: 0.00 in
  •   

Regional Weather Roundup
for Boston, MA

        
000
ASUS41 KBOX 162110
RWRBOX

REGIONAL WEATHER ROUNDUP
NATIONAL WEATHER SERVICE BOSTON/NORTON MA
500 PM EDT THU MAR 16 2023

NOTE:  "FAIR" INDICATES FEW OR NO CLOUDS BELOW 12,000 FEET WITH NO 
SIGNIFICANT WEATHER AND/OR OBSTRUCTIONS TO VISIBILITY.

MAZALL-162200-
EASTERN MASSACHUSETTS
  
CITY           SKY/WX    TMP DP  RH WIND       PRES   REMARKS
BOSTON         CLOUDY    49  26  41 NW16      29.85S                  
BEVERLY        CLOUDY    47  25  42 W12G22    29.83S                  
LAWRENCE       CLOUDY    46  25  43 NW8       29.85S                  
BEDFORD        CLOUDY    47  26  44 W8        29.84F                  
NORWOOD        CLOUDY    51  26  37 W12       29.85F                  
MARSHFIELD     PTSUNNY   50  25  37 W9        29.83F                  
PLYMOUTH       CLOUDY    50  27  40 W16G30    29.83S                  
TAUNTON          N/A    N/A N/A N/A MISG      29.85S                  
NEW BEDFORD    CLOUDY    52  29  41 NW12G22   29.85S                  
$$

MAZALL-162200-
CAPE COD AND THE ISLANDS
  
CITY           SKY/WX    TMP DP  RH WIND       PRES   REMARKS
FALMOUTH       SUNNY     50  28  43 W13G20    29.84S                  
HYANNIS        PTSUNNY   51  22  31 W8        29.81F                  
CHATHAM        CLOUDY    50  26  39 W8        29.83F                  
PROVINCETOWN   CLOUDY    45  31  58 W9        29.84S                  
NANTUCKET      MOSUNNY   44  29  55 W22G31    29.85F                  
MARTHAS VNYRD  SUNNY     47  28  47 W13G22    29.86F                  
$$
 
MAZALL-162200-
CENTRAL AND WESTERN MASSACHUSETTS
  
CITY           SKY/WX    TMP DP  RH WIND       PRES   REMARKS
WORCESTER      PTSUNNY   45  26  47 W12G22    29.84S                  
FITCHBURG      CLOUDY    46  25  43 W12       29.86S                  
ORANGE         CLOUDY    45  25  45 W10G17    29.87F                  
SPRINGFIELD    PTSUNNY   49  26  41 SW6       29.86F                  
WESTFIELD      MOSUNNY   47  24  40 NW14      29.88F                  
NORTH ADAMS    CLOUDY    45  22  40 NW3       29.88F                  
PITTSFIELD     PTSUNNY   44  23  43 W12       29.85F                  
$$
 
RIZALL-162200-
RHODE ISLAND
  
CITY           SKY/WX    TMP DP  RH WIND       PRES   REMARKS
PROVIDENCE     PTSUNNY   50  27  40 NW10      29.87S                  
NEWPORT        CLOUDY    49  28  44 NW10      29.86S                  
BLOCK ISLAND   PTSUNNY   45  27  49 W15G22    29.90F                  
SMITHFIELD     CLOUDY    48  27  44 W10       29.86F                  
WESTERLY       PTSUNNY   45  27  49 SW13G23   29.89S                  
$$
 
CTZALL-162200-
CONNECTICUT
  
CITY           SKY/WX    TMP DP  RH WIND       PRES   REMARKS
BRADLEY INTL   PTSUNNY   53  24  32 W10       29.89F                  
HARTFORD       MOSUNNY   54  22  28 W9        29.90F                  
BRIDGEPORT     SUNNY     55  23  28 W13G20    29.91F                  
DANBURY        SUNNY     55  23  28 W9        29.91F                  
GROTON         MOSUNNY   49  28  44 SW14      29.89F                  
NEW HAVEN      SUNNY     54  28  36 VRB6      29.91F                  
CHESTER        FAIR      54  19  26 W7        29.89F                  
MERIDEN        SUNNY     54  20  26 VRB6      29.90F                  
WILLIMANTIC    CLOUDY    51  25  36 W10G18    29.89F                  
OXFORD         SUNNY     51  23  33 W8        29.90F                  
$$

MEZ002-015-021-024-NHZ003-005-008-011-012-014-VTZ005-008-162200-
NORTHERN NEW ENGLAND
  
CITY           SKY/WX    TMP DP  RH WIND       PRES   REMARKS
PORTLAND ME    MOSUNNY   47  23  38 W14G22    29.77S                  
BANGOR ME      MOSUNNY   46  20  35 NW12      29.71R                  
CONCORD NH     CLOUDY    42  24  49 N17G23    29.85S                  
MANCHESTER NH  PTSUNNY   44  23  43 NW9       29.84R                  
NASHUA NH      CLOUDY    46  25  43 W9        29.85S                  
PORTSMOUTH NH  CLOUDY    42  24  48 W14       29.82R                  
JAFFREY NH     CLOUDY    42  24  49 W5        29.85R                  
KEENE NH       CLOUDY    38  32  79 CALM        N/A                   
BURLINGTON VT  CLOUDY    35  30  82 E5        29.90S WCI  31          
MT. WASHINGTON FOG       16  16 100 NW62G68     N/A  VSB 0   WCI -11  
$$

NYZ052-076-162200-
EASTERN NEW YORK
  
CITY           SKY/WX    TMP DP  RH WIND       PRES   REMARKS
ALBANY         PTSUNNY   51  21  30 CALM      29.90F                  
NEW YORK CITY  MOSUNNY   58  16  19 W8        29.92F                  
$$
 
ANZALL-162200-
MARINE OBSERVATIONS
  
STATION/POSITION TIME  TEMP    WIND        PRES    VSBY  WAVE
                       AIR SEA DIR/SP/G                  HT/PER
                 (UTC) (F)     (DEG/KT/KT) (MB)    (MI)  (FT/S)
BOSTON BUOY      2050      41              1010.7F         4/11
BUZZARDS BAY     2000   41     250/ 20/ 22 1011.9F
NANTUCKET SOUND  2050   44 41  250/ 14/ 16 1010.5F         2/ 3
MASS BAY-STELLWA 1904   44 40  270/ 12/ 16 1009.1F  1 7/8  5/ 8
ISLE OF SHOALS   2000   45     280/ 21/ 22 1008.5R
S OF BLOCK IS    2056      42                N/A           5/ 6
$$

......................KEY.........................
  SKY/WX - SKY CONDITION/PRESENT WEATHER
  TMP    - TEMPERATURE IN FAHRENHEIT
  DWPT   - DEWPOINT IN FAHRENHEIT
  RH     - RELATIVE HUMIDITY IN PERCENT
  WIND   - DIRECTION AND SPEED IN MPH
  PRES   - MEAN SEA LEVEL PRESSURE IN INCHES OF HG
  WCI    - WIND CHILL INDEX
  VSB    - VISIBILITY IN MILES
  HX     - HEAT INDEX
  TC     - TEMPERATURE IN CELSIUS
  VRB    - VARIABLE WIND DIRECTION
  N/A    - NOT AVAILABLE
  
      

Other recent Regional Weather Roundups

Wed Mar 22, 9:10am EDT

Wed Mar 22, 8:10am EDT

Wed Mar 22, 7:10am EDT

Wed Mar 22, 6:10am EDT

Wed Mar 22, 5:10am EDT

Wed Mar 22, 4:10am EDT

Wed Mar 22, 3:10am EDT

Wed Mar 22, 2:10am EDT

Wed Mar 22, 1:10am EDT

Wed Mar 22, 12:10am EDT

Tue Mar 21, 11:10pm EDT

Tue Mar 21, 10:10pm EDT

Tue Mar 21, 9:10pm EDT

Tue Mar 21, 8:10pm EDT

Tue Mar 21, 7:10pm EDT

Tue Mar 21, 6:10pm EDT

Tue Mar 21, 5:10pm EDT

Tue Mar 21, 4:10pm EDT

Tue Mar 21, 3:10pm EDT

Tue Mar 21, 2:10pm EDT

Tue Mar 21, 1:10pm EDT

Tue Mar 21, 12:10pm EDT

Tue Mar 21, 11:10am EDT

Tue Mar 21, 10:10am EDT

Tue Mar 21, 9:10am EDT

Tue Mar 21, 8:10am EDT

Tue Mar 21, 7:10am EDT

Tue Mar 21, 6:10am EDT

Tue Mar 21, 5:10am EDT

Tue Mar 21, 4:10am EDT

Tue Mar 21, 3:10am EDT

Tue Mar 21, 2:10am EDT

Tue Mar 21, 1:10am EDT

Tue Mar 21, 12:10am EDT

Mon Mar 20, 11:10pm EDT

Mon Mar 20, 10:10pm EDT

Mon Mar 20, 9:10pm EDT

Mon Mar 20, 8:10pm EDT

Mon Mar 20, 7:10pm EDT

Mon Mar 20, 6:10pm EDT

Mon Mar 20, 5:10pm EDT

Mon Mar 20, 4:10pm EDT

Mon Mar 20, 3:10pm EDT

Mon Mar 20, 2:10pm EDT

Mon Mar 20, 1:10pm EDT

Mon Mar 20, 12:10pm EDT

Mon Mar 20, 11:10am EDT

Mon Mar 20, 10:10am EDT

Mon Mar 20, 9:10am EDT

Mon Mar 20, 8:10am EDT

Mon Mar 20, 7:10am EDT

Mon Mar 20, 6:10am EDT

Mon Mar 20, 5:10am EDT

Mon Mar 20, 4:10am EDT

Mon Mar 20, 3:10am EDT

Mon Mar 20, 2:10am EDT

Mon Mar 20, 1:10am EDT

Mon Mar 20, 12:10am EDT

Sun Mar 19, 11:10pm EDT

Sun Mar 19, 10:10pm EDT

Sun Mar 19, 9:10pm EDT

Sun Mar 19, 8:10pm EDT

Sun Mar 19, 7:10pm EDT

Sun Mar 19, 6:10pm EDT

Sun Mar 19, 5:10pm EDT

Sun Mar 19, 4:10pm EDT

Sun Mar 19, 3:10pm EDT

Sun Mar 19, 2:10pm EDT

Sun Mar 19, 1:10pm EDT

Sun Mar 19, 12:10pm EDT

Sun Mar 19, 11:10am EDT

Sun Mar 19, 10:10am EDT

Sun Mar 19, 9:10am EDT

Sun Mar 19, 8:10am EDT

Sun Mar 19, 7:10am EDT

Sun Mar 19, 6:10am EDT

Sun Mar 19, 5:10am EDT

Sun Mar 19, 4:10am EDT

Sun Mar 19, 3:10am EDT

Sun Mar 19, 2:10am EDT

Sun Mar 19, 1:10am EDT

Sun Mar 19, 12:10am EDT

Sat Mar 18, 11:10pm EDT

Sat Mar 18, 10:10pm EDT

Sat Mar 18, 9:10pm EDT

Sat Mar 18, 8:10pm EDT

Sat Mar 18, 7:10pm EDT

Sat Mar 18, 6:10pm EDT

Sat Mar 18, 5:10pm EDT

Sat Mar 18, 4:10pm EDT

Sat Mar 18, 3:10pm EDT

Sat Mar 18, 2:10pm EDT

Sat Mar 18, 1:10pm EDT

Sat Mar 18, 12:10pm EDT

Sat Mar 18, 11:10am EDT

Sat Mar 18, 10:10am EDT

Sat Mar 18, 9:10am EDT

Sat Mar 18, 8:10am EDT

Sat Mar 18, 7:10am EDT

Sat Mar 18, 6:10am EDT

Sat Mar 18, 5:10am EDT

Sat Mar 18, 4:10am EDT

Sat Mar 18, 3:10am EDT

Sat Mar 18, 2:10am EDT

Sat Mar 18, 1:10am EDT

Sat Mar 18, 12:10am EDT

Fri Mar 17, 11:10pm EDT

Fri Mar 17, 10:10pm EDT

Fri Mar 17, 9:10pm EDT

Fri Mar 17, 8:10pm EDT

Fri Mar 17, 7:10pm EDT

Fri Mar 17, 6:10pm EDT

Fri Mar 17, 5:10pm EDT

Fri Mar 17, 4:10pm EDT

Fri Mar 17, 3:10pm EDT

Fri Mar 17, 2:10pm EDT

Fri Mar 17, 1:10pm EDT

Fri Mar 17, 12:10pm EDT

Fri Mar 17, 11:10am EDT

Fri Mar 17, 10:10am EDT

Fri Mar 17, 9:10am EDT

Fri Mar 17, 8:10am EDT

Fri Mar 17, 7:10am EDT

Fri Mar 17, 6:10am EDT

Fri Mar 17, 5:10am EDT

Fri Mar 17, 4:10am EDT

Fri Mar 17, 3:10am EDT

Fri Mar 17, 2:10am EDT

Fri Mar 17, 1:10am EDT

Fri Mar 17, 12:10am EDT

Thu Mar 16, 11:10pm EDT

Thu Mar 16, 10:10pm EDT

Thu Mar 16, 9:10pm EDT

Thu Mar 16, 8:10pm EDT

Thu Mar 16, 7:10pm EDT

Thu Mar 16, 6:10pm EDT

Thu Mar 16, 4:10pm EDT

Thu Mar 16, 3:10pm EDT

Thu Mar 16, 2:10pm EDT

Thu Mar 16, 1:10pm EDT

Thu Mar 16, 12:10pm EDT

Thu Mar 16, 11:10am EDT

Thu Mar 16, 10:10am EDT

Thu Mar 16, 9:10am EDT

Thu Mar 16, 8:10am EDT

Thu Mar 16, 7:10am EDT

Thu Mar 16, 6:10am EDT

Thu Mar 16, 5:10am EDT

Thu Mar 16, 4:10am EDT

Thu Mar 16, 3:10am EDT

Thu Mar 16, 2:10am EDT

Thu Mar 16, 1:10am EDT

Thu Mar 16, 12:10am EDT

Wed Mar 15, 11:10pm EDT

Wed Mar 15, 10:10pm EDT

Wed Mar 15, 9:10pm EDT

Wed Mar 15, 8:10pm EDT

Wed Mar 15, 7:10pm EDT

Wed Mar 15, 6:10pm EDT

Wed Mar 15, 5:10pm EDT

Wed Mar 15, 4:10pm EDT

Wed Mar 15, 3:10pm EDT

Wed Mar 15, 2:10pm EDT

Wed Mar 15, 1:10pm EDT

Wed Mar 15, 12:10pm EDT

Wed Mar 15, 11:10am EDT

Wed Mar 15, 10:10am EDT